Time,TemperatureF,DewpointF,PressureIn,WindDirection,WindDirectionDegrees,WindSpeedMPH,WindSpeedGustMPH,Humidity,HourlyPrecipIn,Conditions,Clouds,dailyrainin,SoftwareType,DateUTC
2017-10-20 00:05:00,57.5,33.3,30.12,NNW,328,4.0,10.0,40,0.00,,,0.00,Wunderground v.1.15,2017-10-20 04:05:00,
2017-10-20 00:10:00,57.4,33.9,30.12,NNW,340,5.0,5.0,41,0.00,,,0.00,Wunderground v.1.15,2017-10-20 04:10:00,
2017-10-20 00:15:00,57.2,33.7,30.12,NW,310,4.0,8.0,41,0.00,,,0.00,Wunderground v.1.15,2017-10-20 04:15:00,
2017-10-20 00:20:00,57.2,33.7,30.12,NNW,335,4.0,4.0,41,0.00,,,0.00,Wunderground v.1.15,2017-10-20 04:20:00,
2017-10-20 00:25:00,57.2,33.7,30.11,West,259,5.0,5.0,41,0.00,,,0.00,Wunderground v.1.15,2017-10-20 04:25:00,
2017-10-20 00:35:00,57.2,33.7,30.12,WNW,300,4.0,6.0,41,0.00,,,0.00,Wunderground v.1.15,2017-10-20 04:35:00,
2017-10-20 00:40:00,57.2,33.7,30.12,NNW,333,4.0,4.0,41,0.00,,,0.00,Wunderground v.1.15,2017-10-20 04:40:00,
2017-10-20 00:45:00,57.0,34.1,30.12,WSW,256,3.0,4.0,42,0.00,,,0.00,Wunderground v.1.15,2017-10-20 04:45:00,
2017-10-20 00:50:00,57.0,34.1,30.12,West,276,4.0,4.0,42,0.00,,,0.00,Wunderground v.1.15,2017-10-20 04:50:00,
2017-10-20 00:55:00,57.0,34.1,30.12,WNW,294,5.0,7.0,42,0.00,,,0.00,Wunderground v.1.15,2017-10-20 04:55:00,
2017-10-20 01:00:00,56.8,33.9,30.12,NNW,345,4.0,5.0,42,0.00,,,0.00,Wunderground v.1.15,2017-10-20 05:00:00,
2017-10-20 01:10:00,56.4,34.2,30.12,NW,311,4.0,4.0,43,0.00,,,0.00,Wunderground v.1.15,2017-10-20 05:10:00,
2017-10-20 01:15:00,56.3,34.1,30.12,NNW,331,4.0,9.0,43,0.00,,,0.00,Wunderground v.1.15,2017-10-20 05:15:00,
2017-10-20 01:20:00,56.2,34.6,30.12,NE,38,4.0,4.0,44,0.00,,,0.00,Wunderground v.1.15,2017-10-20 05:20:00,
2017-10-20 01:25:00,56.1,34.5,30.12,NW,325,4.0,4.0,44,0.00,,,0.00,Wunderground v.1.15,2017-10-20 05:25:00,
2017-10-20 01:30:00,55.9,34.8,30.12,NW,307,5.0,5.0,45,0.00,,,0.00,Wunderground v.1.15,2017-10-20 05:30:00,
2017-10-20 01:40:00,55.6,35.1,30.12,NW,309,4.0,4.0,46,0.00,,,0.00,Wunderground v.1.15,2017-10-20 05:40:00,
2017-10-20 01:45:00,55.3,35.4,30.12,West,277,3.0,4.0,47,0.00,,,0.00,Wunderground v.1.15,2017-10-20 05:45:00,
2017-10-20 01:50:00,55.4,35.5,30.12,NW,310,3.0,3.0,47,0.00,,,0.00,Wunderground v.1.15,2017-10-20 05:50:00,
2017-10-20 01:55:00,55.1,35.2,30.12,North,359,3.0,6.0,47,0.00,,,0.00,Wunderground v.1.15,2017-10-20 05:55:00,
2017-10-20 02:00:00,55.0,35.7,30.12,WNW,285,3.0,4.0,48,0.00,,,0.00,Wunderground v.1.15,2017-10-20 06:00:00,
2017-10-20 02:05:00,55.1,35.7,30.12,West,266,4.0,4.0,48,0.00,,,0.00,Wunderground v.1.15,2017-10-20 06:05:00,
2017-10-20 02:15:00,54.9,35.6,30.11,NW,305,4.0,4.0,48,0.00,,,0.00,Wunderground v.1.15,2017-10-20 06:15:00,
2017-10-20 02:20:00,54.7,35.9,30.11,WSW,240,3.0,3.0,49,0.00,,,0.00,Wunderground v.1.15,2017-10-20 06:20:00,
2017-10-20 02:25:00,54.7,36.4,30.12,NW,304,4.0,4.0,50,0.00,,,0.00,Wunderground v.1.15,2017-10-20 06:25:00,
2017-10-20 02:30:00,54.6,36.3,30.11,NNW,334,4.0,5.0,50,0.00,,,0.00,Wunderground v.1.15,2017-10-20 06:30:00,
2017-10-20 02:35:00,54.6,36.3,30.11,NW,307,4.0,5.0,50,0.00,,,0.00,Wunderground v.1.15,2017-10-20 06:35:00,
2017-10-20 02:45:00,54.3,36.5,30.11,West,274,3.0,3.0,51,0.00,,,0.00,Wunderground v.1.15,2017-10-20 06:45:00,
2017-10-20 02:50:00,54.3,37.0,30.11,NW,322,3.0,4.0,52,0.00,,,0.00,Wunderground v.1.15,2017-10-20 06:50:00,
2017-10-20 02:55:00,54.3,37.0,30.11,NW,321,3.0,4.0,52,0.00,,,0.00,Wunderground v.1.15,2017-10-20 06:55:00,
2017-10-20 03:00:00,54.2,36.9,30.11,NW,316,4.0,5.0,52,0.00,,,0.00,Wunderground v.1.15,2017-10-20 07:00:00,
2017-10-20 03:05:00,54.2,36.9,30.11,NW,307,4.0,7.0,52,0.00,,,0.00,Wunderground v.1.15,2017-10-20 07:05:00,
2017-10-20 03:10:00,54.1,37.3,30.11,NW,306,4.0,4.0,53,0.00,,,0.00,Wunderground v.1.15,2017-10-20 07:10:00,
2017-10-20 03:15:00,54.2,37.4,30.10,NW,307,4.0,4.0,53,0.00,,,0.00,Wunderground v.1.15,2017-10-20 07:15:00,
2017-10-20 03:20:00,54.2,37.9,30.10,WNW,289,4.0,4.0,54,0.00,,,0.00,Wunderground v.1.15,2017-10-20 07:20:00,
2017-10-20 03:25:00,54.2,37.9,30.10,NW,312,4.0,6.0,54,0.00,,,0.00,Wunderground v.1.15,2017-10-20 07:25:00,
2017-10-20 03:30:00,54.1,37.8,30.10,NW,313,4.0,4.0,54,0.00,,,0.00,Wunderground v.1.15,2017-10-20 07:30:00,